Regional Weather Roundup
Issued by NWS Sioux Falls, SD

Home | Current Version | Previous Version | Text Only | Print | Product List | Glossary On
Versions: 1 2 3 4 5 6 7 8 9 10 11 12 13 14 15 16 17 18 19 20 21 22 23 24 25 26 27 28 29 30 31 32 33 34 35 36 37 38 39 40 41 42 43 44 45 46 47 48 49 50
000
ASUS43 KFSD 161510
RWRFSD

WEATHER ROUNDUP FOR SE SOUTH DAKOTA/SW MINNESOTA/NW IOWA
NATIONAL WEATHER SERVICE SIOUX FALLS SD
900 AM CST TUE JAN 16 2018

NOTE: "FAIR" INDICATES FEW OR NO CLOUDS BELOW 12,000 FEET WITH NO
SIGNIFICANT WEATHER AND OR OBSTRUCTIONS TO VISIBILITY.


SDZ038>040-050-052>070-161600-
SOUTHEAST SOUTH DAKOTA

CITY           SKY/WX    TMP DP  RH WIND       PRES   REMARKS
BROOKINGS      CLOUDY    -9 -13  83 NW12      30.69S WCI -28
CHAMBERLAIN    CLEAR     -7 -12  77 SW5       30.75F WCI -18
HURON          CLEAR     -9 -15  75 W6        30.78S WCI -22
MADISON        CLOUDY    -9 N/A N/A NW12      30.69S WCI -29
MITCHELL       CLOUDY    -7 -13  75 NW9       30.80S WCI -24
SIOUX FALLS    CLOUDY    -7 -12  79 NW10      30.72S WCI -25
WINNER         FAIR      -5 -14  65 W6        30.71F WCI -18
YANKTON        CLOUDY    -5 -11  75 NW16      30.77F WCI -27
$$

MNZ071-072-080-081-089-090-097-098-161600-
SOUTHWEST MINNESOTA

CITY           SKY/WX    TMP DP  RH WIND       PRES   REMARKS
FAIRMONT       FLURRIES  -6 -11  79 NW17      30.69S WCI -28
JACKSON        CLOUDY    -8 -13  77 NW12G17   30.67S WCI -27
LUVERNE        CLOUDY    -6  -9  84 NW7       30.71S WCI -20
MARSHALL       CLOUDY    -8 -13  78 NW14      30.73S WCI -29
MONTEVIDEO     CLOUDY    -8 -13  77 N10       30.75S WCI -26
PIPESTONE      CLOUDY    -6  -9  84 N7        30.66S FOG     WCI -20
REDWOOD FALLS  CLOUDY    -7 -12  79 NW12      30.73F WCI -26
WINDOM         CLOUDY    -8 -20  54 NW14      30.68R WCI -28
$$

IAZ001>003-012>014-020>022-031-032-NEZ013-014-SDZ071-161600-
NORTHWEST IOWA

CITY           SKY/WX    TMP DP  RH WIND       PRES   REMARKS
CHEROKEE       CLEAR     -5  -9  81 NW8       30.73R WCI -20
DENISON        FLURRIES   0  -6  78 NW15G21   30.73R WCI -20
ESTHERVILLE    CLOUDY    -7 -11  83 NW15      30.68R WCI -28
LE MARS        CLOUDY    -4 -11  71 NW10      30.75S WCI -21
ORANGE CITY    CLOUDY    -4  -8  84 NW8       30.70R WCI -19
SHELDON        CLOUDY    -6  -9  84 NW8       30.69S WCI -21
SIOUX CITY     CLOUDY    -4  -9  79 NW15      30.77R WCI -25
SPENCER        CLOUDY    -6 -13  71 NW15      30.69S WCI -27
STORM LAKE     FLURRIES  -6 -11  77 NW13      30.68R WCI -25
$$

ABBREVIATIONS USED IN REMARKS
   TC - TEMPERATURE IN CELSIUS
  WCI - WIND CHILL INDEX
   HX - HEAT INDEX
  VSB - VISIBILITY





USA.gov is the U.S. government's official web portal to all federal, state and local government web resources and services.